This is the latest recevied weather packets stored in our database for station/object KB4RFE. If no packets are shown the sender has not sent any weather packets the latest 10 day(s).
| Time | Temp. | Humidity | Pressure | Rain* | Wind** | Luminosity | Snow |
|---|---|---|---|---|---|---|---|
| 1778028159 | 20.56° C | 71% | 1019.4 hPa | 0 mm | - | 0 W/m² | - |
| 1778027854 | 20.56° C | 71% | 1019.4 hPa | 0 mm | - | 0 W/m² | - |
| 1778027551 | 20.56° C | 71% | 1019.3 hPa | 0 mm | - | 0 W/m² | - |
| 1778027247 | 20.56° C | 71% | 1019.6 hPa | 0 mm | - | 0 W/m² | - |
| 1778026944 | 20.56° C | 71% | 1019.5 hPa | 0 mm | - | 0 W/m² | - |
| 1778026640 | 20.56° C | 70% | 1019.5 hPa | 0 mm | - | 0 W/m² | - |
| 1778026337 | 21.11° C | 69% | 1019.4 hPa | 0 mm | - | 1 W/m² | - |
| 1778026034 | 21.11° C | 68% | 1019.6 hPa | 0 mm | - | 2 W/m² | - |
| 1778025732 | 21.11° C | 68% | 1019.4 hPa | 0 mm | - | 4 W/m² | - |
| 1778025429 | 21.11° C | 68% | 1019.5 hPa | 0 mm | - | 6 W/m² | - |
| 1778025126 | 21.11° C | 67% | 1019.5 hPa | 0 mm | - | 9 W/m² | - |
| 1778024823 | 21.11° C | 67% | 1019.3 hPa | 0 mm | - | 12 W/m² | - |
| 1778024521 | 21.11° C | 66% | 1019.3 hPa | 0 mm | - | 15 W/m² | - |
| 1778024217 | 21.67° C | 66% | 1019.3 hPa | 0 mm | - | 18 W/m² | - |
| 1778023915 | 21.67° C | 64% | 1019.4 hPa | 0 mm | - | 20 W/m² | - |
| 1778023612 | 21.67° C | 64% | 1019.2 hPa | 0 mm | - | 23 W/m² | - |
| 1778023310 | 21.67° C | 65% | 1019.2 hPa | 0 mm | - | 26 W/m² | - |
| 1778023006 | 21.67° C | 63% | 1019.4 hPa | 0 mm | - | 27 W/m² | - |
| 1778022705 | 21.67° C | 63% | 1019.4 hPa | 0 mm | - | 28 W/m² | - |
| 1778022403 | 21.67° C | 63% | 1019.5 hPa | 0 mm | - | 30 W/m² | - |
| 1778022099 | 21.67° C | 66% | 1019.6 hPa | 0 mm | - | 32 W/m² | - |
| 1778021795 | 22.22° C | 65% | 1019.5 hPa | 0 mm | - | 34 W/m² | - |
| 1778021491 | 22.22° C | 64% | 1019.3 hPa | 0 mm | - | 33 W/m² | - |
| 1778021188 | 22.22° C | 63% | 1019.5 hPa | 0 mm | - | 39 W/m² | - |
| 1778020886 | 22.22° C | 62% | 1019.4 hPa | 0 mm | - | 41 W/m² | - |
* Rain latest hour (hover to see other rain measurements)
** Current wind speed in m/s (hover to see current wind gust speed)